Time,TemperatureF,DewpointF,PressureIn,WindDirection,WindDirectionDegrees,WindSpeedMPH,WindSpeedGustMPH,Humidity,HourlyPrecipIn,Conditions,Clouds,dailyrainin,SoftwareType,DateUTC
2013-01-06 00:02:00,35.1,31.3,29.94,SSE,158,0.0,0.0,86,0.00,,---,0.00,VWS V14.01,2013-01-06 06:02:00,
2013-01-06 00:08:00,34.9,31.1,29.94,SSE,158,0.0,0.0,86,0.00,,---,0.00,VWS V14.01,2013-01-06 06:08:00,
2013-01-06 00:13:00,34.5,30.5,29.94,NNW,338,0.0,0.0,85,0.00,,---,0.00,VWS V14.01,2013-01-06 06:13:00,
2013-01-06 00:19:00,34.7,31.0,29.94,NNW,338,0.0,0.0,86,0.00,,---,0.00,VWS V14.01,2013-01-06 06:19:00,
2013-01-06 00:25:00,34.5,30.8,29.94,NNW,338,0.0,0.0,86,0.00,,---,0.00,VWS V14.01,2013-01-06 06:25:00,
2013-01-06 00:30:00,34.7,31.2,29.94,NNW,338,0.0,0.0,87,0.00,,---,0.00,VWS V14.01,2013-01-06 06:30:00,
2013-01-06 00:36:00,34.9,31.4,29.94,NNW,338,0.0,0.0,87,0.00,,---,0.00,VWS V14.01,2013-01-06 06:36:00,
2013-01-06 00:41:00,34.7,31.2,29.97,NNW,338,0.0,0.0,87,0.00,,---,0.00,VWS V14.01,2013-01-06 06:41:00,
2013-01-06 00:46:00,34.7,31.2,29.97,NNW,338,0.0,0.0,87,0.00,,---,0.00,VWS V14.01,2013-01-06 06:46:00,
2013-01-06 00:51:00,34.9,31.7,29.97,NNW,338,0.0,0.0,88,0.00,,---,0.00,VWS V14.01,2013-01-06 06:51:00,
2013-01-06 00:56:00,34.7,31.2,29.97,NNW,338,0.0,0.0,87,0.00,,---,0.00,VWS V14.01,2013-01-06 06:56:00,
2013-01-06 01:02:00,34.5,31.1,29.97,NNW,338,0.0,0.0,87,0.00,,---,0.00,VWS V14.01,2013-01-06 07:02:00,
2013-01-06 01:07:00,34.5,31.1,29.97,ESE,112,0.0,0.0,87,0.00,,---,0.00,VWS V14.01,2013-01-06 07:07:00,
2013-01-06 01:13:00,34.3,30.6,29.97,ESE,112,0.0,0.0,86,0.00,,---,0.00,VWS V14.01,2013-01-06 07:13:00,
2013-01-06 01:19:00,34.2,30.4,29.97,ESE,112,0.0,0.0,86,0.00,,---,0.00,VWS V14.01,2013-01-06 07:19:00,
2013-01-06 01:24:00,34.0,30.2,29.97,ESE,112,0.0,0.0,86,0.00,,---,0.00,VWS V14.01,2013-01-06 07:24:00,
2013-01-06 01:30:00,34.0,30.2,29.97,ESE,112,0.0,0.0,86,0.00,,---,0.00,VWS V14.01,2013-01-06 07:30:00,
2013-01-06 01:35:00,34.0,30.2,29.97,ESE,112,0.0,0.0,86,0.00,,---,0.00,VWS V14.01,2013-01-06 07:35:00,
2013-01-06 01:41:00,34.0,30.5,29.97,ESE,112,0.0,0.0,87,0.00,,---,0.00,VWS V14.01,2013-01-06 07:41:00,
2013-01-06 01:46:00,34.2,30.7,29.97,ESE,112,0.0,0.0,87,0.00,,---,0.00,VWS V14.01,2013-01-06 07:46:00,
2013-01-06 01:51:00,34.3,31.2,29.97,ESE,112,0.0,0.0,88,0.00,,---,0.00,VWS V14.01,2013-01-06 07:51:00,
2013-01-06 01:57:00,34.3,31.2,29.97,ESE,112,0.0,0.0,88,0.00,,---,0.00,VWS V14.01,2013-01-06 07:57:00,
2013-01-06 02:02:00,34.5,31.3,29.97,ESE,112,0.0,0.0,88,0.00,,---,0.00,VWS V14.01,2013-01-06 08:02:00,
2013-01-06 02:09:00,34.3,31.2,29.97,ESE,112,0.0,0.0,88,0.00,,---,0.00,VWS V14.01,2013-01-06 08:09:00,
2013-01-06 02:15:00,34.3,30.9,29.97,East,90,0.0,0.0,87,0.00,,---,0.00,VWS V14.01,2013-01-06 08:15:00,
2013-01-06 02:20:00,34.2,30.7,29.97,East,90,0.0,0.0,87,0.00,,---,0.00,VWS V14.01,2013-01-06 08:20:00,
2013-01-06 02:26:00,34.0,30.5,29.97,East,90,0.0,0.0,87,0.00,,---,0.00,VWS V14.01,2013-01-06 08:26:00,
2013-01-06 02:31:00,34.0,30.5,29.97,East,90,0.0,0.0,87,0.00,,---,0.00,VWS V14.01,2013-01-06 08:31:00,
2013-01-06 02:36:00,34.2,31.0,29.97,East,90,0.0,0.0,88,0.00,,---,0.00,VWS V14.01,2013-01-06 08:36:00,
2013-01-06 02:42:00,34.3,31.4,29.97,East,90,0.0,0.0,89,0.00,,---,0.00,VWS V14.01,2013-01-06 08:42:00,
2013-01-06 02:47:00,34.3,31.4,29.97,ENE,68,0.0,0.0,89,0.00,,---,0.00,VWS V14.01,2013-01-06 08:47:00,
2013-01-06 02:52:00,34.5,31.6,29.97,ENE,68,0.0,0.0,89,0.00,,---,0.00,VWS V14.01,2013-01-06 08:52:00,
2013-01-06 02:58:00,34.3,31.2,29.97,ENE,68,0.0,0.0,88,0.00,,---,0.00,VWS V14.01,2013-01-06 08:58:00,
2013-01-06 03:03:00,34.0,30.5,29.97,ENE,68,0.0,0.0,87,0.00,,---,0.00,VWS V14.01,2013-01-06 09:03:00,
2013-01-06 03:08:00,33.8,30.6,29.97,ENE,68,0.0,0.0,88,0.00,,---,0.00,VWS V14.01,2013-01-06 09:08:00,
2013-01-06 03:13:00,33.6,30.5,29.94,ENE,68,0.0,0.0,88,0.00,,---,0.00,VWS V14.01,2013-01-06 09:13:00,
2013-01-06 03:20:00,33.3,30.1,29.94,ENE,68,0.0,0.0,88,0.00,,---,0.00,VWS V14.01,2013-01-06 09:20:00,
2013-01-06 03:26:00,33.1,29.9,29.97,ENE,68,0.0,0.0,88,0.00,,---,0.00,VWS V14.01,2013-01-06 09:26:00,
2013-01-06 03:31:00,32.9,29.7,29.97,ENE,68,0.0,0.0,88,0.00,,---,0.00,VWS V14.01,2013-01-06 09:31:00,
2013-01-06 03:36:00,32.7,29.6,29.97,ENE,68,0.0,0.0,88,0.00,,---,0.00,VWS V14.01,2013-01-06 09:36:00,
2013-01-06 03:42:00,32.7,29.8,29.97,ENE,68,0.0,0.0,89,0.00,,---,0.00,VWS V14.01,2013-01-06 09:42:00,
2013-01-06 03:47:00,32.9,29.7,29.97,ENE,68,0.0,0.0,88,0.00,,---,0.00,VWS V14.01,2013-01-06 09:47:00,
2013-01-06 03:53:00,32.9,29.7,29.97,ENE,68,0.0,0.0,88,0.00,,---,0.00,VWS V14.01,2013-01-06 09:53:00,
2013-01-06 03:59:00,32.9,29.7,29.97,ENE,68,0.0,0.0,88,0.00,,---,0.00,VWS V14.01,2013-01-06 09:59:00,
2013-01-06 04:05:00,32.9,29.7,29.97,ENE,68,0.0,0.0,88,0.00,,---,0.00,VWS V14.01,2013-01-06 10:05:00,
2013-01-06 04:11:00,32.7,29.8,29.97,ENE,68,0.0,0.0,89,0.00,,---,0.00,VWS V14.01,2013-01-06 10:11:00,
2013-01-06 04:16:00,32.7,29.8,29.97,ENE,68,0.0,0.0,89,0.00,,---,0.00,VWS V14.01,2013-01-06 10:16:00,
2013-01-06 04:21:00,32.7,29.8,29.97,ENE,68,0.0,0.0,89,0.00,,---,0.00,VWS V14.01,2013-01-06 10:21:00,
2013-01-06 04:27:00,32.7,29.8,29.97,NE,45,0.0,0.0,89,0.00,,---,0.00,VWS V14.01,2013-01-06 10:27:00,
2013-01-06 04:32:00,32.7,29.8,29.97,ENE,68,0.0,0.0,89,0.00,,---,0.00,VWS V14.01,2013-01-06 10:32:00,
2013-01-06 04:38:00,32.9,30.3,29.97,East,90,0.0,0.0,90,0.00,,---,0.00,VWS V14.01,2013-01-06 10:38:00,
2013-01-06 04:43:00,32.9,30.3,29.94,ENE,68,0.0,0.0,90,0.00,,---,0.00,VWS V14.01,2013-01-06 10:43:00,
2013-01-06 04:49:00,32.7,30.1,29.94,ENE,68,0.0,0.0,90,0.00,,---,0.00,VWS V14.01,2013-01-06 10:49:00,
2013-01-06 04:54:00,32.9,30.3,29.94,ENE,68,0.0,0.0,90,0.00,,---,0.00,VWS V14.01,2013-01-06 10:54:00,
2013-01-06 05:00:00,32.9,30.3,29.97,ENE,68,0.0,0.0,90,0.00,,---,0.00,VWS V14.01,2013-01-06 11:00:00,
2013-01-06 05:06:00,32.9,30.3,29.97,ENE,68,0.0,0.0,90,0.00,,---,0.00,VWS V14.01,2013-01-06 11:06:00,
2013-01-06 05:11:00,32.9,30.3,29.97,ENE,68,0.0,0.0,90,0.00,,---,0.00,VWS V14.01,2013-01-06 11:11:00,
2013-01-06 05:16:00,32.9,30.3,29.97,SE,135,0.0,0.0,90,0.00,,---,0.00,VWS V14.01,2013-01-06 11:16:00,
2013-01-06 05:21:00,32.7,30.1,29.97,SE,135,0.0,0.0,90,0.00,,---,0.00,VWS V14.01,2013-01-06 11:21:00,
2013-01-06 05:27:00,32.5,29.9,29.97,SSW,202,0.0,0.0,90,0.00,,---,0.00,VWS V14.01,2013-01-06 11:27:00,
2013-01-06 05:32:00,32.5,29.9,29.97,SSW,202,0.0,0.0,90,0.00,,---,0.00,VWS V14.01,2013-01-06 11:32:00,
2013-01-06 05:38:00,32.4,29.8,29.97,SSW,202,0.0,0.0,90,0.00,,---,0.00,VWS V14.01,2013-01-06 11:38:00,
2013-01-06 05:43:00,32.2,29.3,29.97,SW,225,0.0,0.0,89,0.00,,---,0.00,VWS V14.01,2013-01-06 11:43:00,
2013-01-06 05:50:00,32.2,29.6,29.97,SSW,202,0.0,0.0,90,0.00,,---,0.00,VWS V14.01,2013-01-06 11:50:00,
2013-01-06 05:55:00,32.2,29.3,29.97,SSW,202,0.0,0.0,89,0.00,,---,0.00,VWS V14.01,2013-01-06 11:55:00,
2013-01-06 06:01:00,32.2,29.6,29.97,SSW,202,0.0,0.0,90,0.00,,---,0.00,VWS V14.01,2013-01-06 12:01:00,
2013-01-06 06:07:00,32.2,29.6,29.97,SW,225,0.0,0.0,90,0.00,,---,0.00,VWS V14.01,2013-01-06 12:07:00,
2013-01-06 06:13:00,32.4,30.0,29.97,SSE,158,0.0,0.0,91,0.00,,---,0.00,VWS V14.01,2013-01-06 12:13:00,
2013-01-06 06:18:00,32.4,30.0,29.97,SSE,158,0.0,0.0,91,0.00,,---,0.00,VWS V14.01,2013-01-06 12:18:00,
2013-01-06 06:24:00,32.2,29.6,29.97,SSE,158,0.0,0.0,90,0.00,,---,0.00,VWS V14.01,2013-01-06 12:24:00,
2013-01-06 06:29:00,32.2,29.6,29.97,SSE,158,0.0,0.0,90,0.00,,---,0.00,VWS V14.01,2013-01-06 12:29:00,
2013-01-06 06:35:00,32.2,29.6,29.97,SSE,158,0.0,0.0,90,0.00,,---,0.00,VWS V14.01,2013-01-06 12:35:00,
2013-01-06 06:41:00,32.2,29.6,29.97,SSE,158,0.0,0.0,90,0.00,,---,0.00,VWS V14.01,2013-01-06 12:41:00,
2013-01-06 06:46:00,32.2,29.6,29.97,SSE,158,0.0,0.0,90,0.00,,---,0.00,VWS V14.01,2013-01-06 12:46:00,
2013-01-06 06:52:00,32.2,29.6,29.97,SSE,158,0.0,0.0,90,0.00,,---,0.00,VWS V14.01,2013-01-06 12:52:00,
2013-01-06 06:58:00,32.2,29.9,29.97,SSE,158,0.0,0.0,91,0.00,,---,0.00,VWS V14.01,2013-01-06 12:58:00,
2013-01-06 07:03:00,32.2,29.6,29.97,SSE,158,0.0,0.0,90,0.00,,---,0.00,VWS V14.01,2013-01-06 13:03:00,
2013-01-06 07:10:00,32.2,29.9,29.97,SSE,158,0.0,0.0,91,0.00,,---,0.00,VWS V14.01,2013-01-06 13:10:00,
2013-01-06 07:15:00,32.2,29.9,29.97,SSE,158,0.0,0.0,91,0.00,,---,0.00,VWS V14.01,2013-01-06 13:15:00,
2013-01-06 07:21:00,32.5,30.2,29.97,SSE,158,0.0,0.0,91,0.00,,---,0.00,VWS V14.01,2013-01-06 13:21:00,
2013-01-06 07:26:00,32.5,30.2,30.00,SSE,158,0.0,0.0,91,0.00,,---,0.00,VWS V14.01,2013-01-06 13:26:00,
2013-01-06 07:31:00,32.5,30.2,30.00,SSE,158,0.0,0.0,91,0.00,,---,0.00,VWS V14.01,2013-01-06 13:31:00,
2013-01-06 07:37:00,32.7,30.4,30.00,SSE,158,0.0,0.0,91,0.00,,---,0.00,VWS V14.01,2013-01-06 13:37:00,
2013-01-06 07:42:00,32.9,30.8,30.00,SSE,158,0.0,0.0,92,0.00,,---,0.00,VWS V14.01,2013-01-06 13:42:00,
2013-01-06 07:47:00,33.1,31.0,30.00,SSE,158,0.0,0.0,92,0.00,,---,0.00,VWS V14.01,2013-01-06 13:47:00,
2013-01-06 07:52:00,33.3,31.2,30.00,SSE,158,0.0,0.0,92,0.00,,---,0.00,VWS V14.01,2013-01-06 13:52:00,
2013-01-06 07:58:00,33.3,31.2,30.00,ENE,68,0.0,0.0,92,0.00,,---,0.00,VWS V14.01,2013-01-06 13:58:00,
2013-01-06 08:03:00,33.6,31.5,30.00,ENE,68,0.0,0.0,92,0.00,,---,0.00,VWS V14.01,2013-01-06 14:03:00,
2013-01-06 08:09:00,33.6,31.5,30.00,East,90,0.0,0.0,92,0.00,,---,0.00,VWS V14.01,2013-01-06 14:09:00,
2013-01-06 08:15:00,33.8,31.7,30.00,SSE,158,0.0,0.0,92,0.00,,---,0.00,VWS V14.01,2013-01-06 14:15:00,
2013-01-06 08:20:00,33.8,31.5,30.00,WSW,248,0.0,0.0,91,0.00,,---,0.00,VWS V14.01,2013-01-06 14:20:00,
2013-01-06 08:25:00,34.0,31.6,30.00,WSW,248,0.0,0.0,91,0.00,,---,0.00,VWS V14.01,2013-01-06 14:25:00,
2013-01-06 08:30:00,34.3,32.3,30.00,ENE,68,0.0,0.0,92,0.00,,---,0.00,VWS V14.01,2013-01-06 14:30:00,
2013-01-06 08:36:00,34.7,32.9,30.00,ENE,68,0.0,0.0,93,0.00,,---,0.00,VWS V14.01,2013-01-06 14:36:00,
2013-01-06 08:41:00,35.1,33.2,30.00,ENE,68,0.0,0.0,93,0.00,,---,0.00,VWS V14.01,2013-01-06 14:41:00,
2013-01-06 08:47:00,35.4,33.6,30.00,ENE,68,0.0,0.0,93,0.00,,---,0.00,VWS V14.01,2013-01-06 14:47:00,
2013-01-06 08:53:00,35.8,33.7,30.00,ENE,68,0.0,0.0,92,0.00,,---,0.00,VWS V14.01,2013-01-06 14:53:00,
2013-01-06 08:58:00,36.1,34.0,30.00,East,90,0.0,0.0,92,0.00,,---,0.00,VWS V14.01,2013-01-06 14:58:00,
2013-01-06 09:03:00,36.5,34.4,30.00,NNW,338,0.0,0.0,92,0.00,,---,0.00,VWS V14.01,2013-01-06 15:03:00,
2013-01-06 09:09:00,36.9,34.8,30.00,WNW,292,0.0,0.0,92,0.00,,---,0.00,VWS V14.01,2013-01-06 15:09:00,
2013-01-06 09:14:00,37.2,35.1,30.03,WNW,292,0.0,0.0,92,0.00,,---,0.00,VWS V14.01,2013-01-06 15:14:00,
2013-01-06 09:19:00,37.8,35.7,30.03,ENE,68,2.9,2.9,92,0.00,,---,0.00,VWS V14.01,2013-01-06 15:19:00,
2013-01-06 09:25:00,38.3,36.5,30.03,NNE,22,2.7,2.7,93,0.00,,---,0.00,VWS V14.01,2013-01-06 15:25:00,
2013-01-06 09:32:00,38.8,37.0,30.03,ENE,68,2.5,3.4,93,0.00,,---,0.00,VWS V14.01,2013-01-06 15:32:00,
2013-01-06 09:38:00,39.4,37.5,30.03,ENE,68,2.0,2.5,93,0.00,,---,0.00,VWS V14.01,2013-01-06 15:38:00,
2013-01-06 09:43:00,40.1,38.2,30.06,East,90,1.6,1.6,93,0.00,,---,0.00,VWS V14.01,2013-01-06 15:43:00,
2013-01-06 09:48:00,40.8,39.2,30.06,ENE,68,2.7,2.7,94,0.00,,---,0.00,VWS V14.01,2013-01-06 15:48:00,
2013-01-06 09:54:00,41.9,40.0,30.06,ESE,112,2.9,3.1,93,0.00,,---,0.00,VWS V14.01,2013-01-06 15:54:00,
2013-01-06 09:59:00,43.3,41.5,30.03,SE,135,0.0,2.9,93,0.00,,---,0.00,VWS V14.01,2013-01-06 15:59:00,
2013-01-06 10:05:00,45.5,43.6,30.03,ESE,112,2.7,4.3,93,0.00,,---,0.00,VWS V14.01,2013-01-06 16:05:00,
2013-01-06 10:11:00,47.3,44.2,30.03,SE,135,2.7,2.7,89,0.00,,---,0.00,VWS V14.01,2013-01-06 16:11:00,
2013-01-06 10:16:00,48.2,43.0,30.03,ESE,112,4.3,4.3,82,0.00,,---,0.00,VWS V14.01,2013-01-06 16:16:00,
2013-01-06 10:21:00,48.7,41.2,30.03,ESE,112,2.7,3.8,75,0.00,,---,0.00,VWS V14.01,2013-01-06 16:21:00,
2013-01-06 10:26:00,50.0,42.0,30.03,East,90,3.8,5.6,74,0.00,,---,0.00,VWS V14.01,2013-01-06 16:26:00,
2013-01-06 10:32:00,51.4,42.7,30.03,East,90,2.9,5.6,72,0.00,,---,0.00,VWS V14.01,2013-01-06 16:32:00,
2013-01-06 10:37:00,52.0,41.4,30.03,ESE,112,4.9,4.9,67,0.00,,---,0.00,VWS V14.01,2013-01-06 16:37:00,
2013-01-06 10:43:00,52.5,40.7,30.00,SE,135,3.6,3.8,64,0.00,,---,0.00,VWS V14.01,2013-01-06 16:43:00,
2013-01-06 10:48:00,53.2,40.6,30.00,SE,135,2.9,3.8,62,0.00,,---,0.00,VWS V14.01,2013-01-06 16:48:00,
2013-01-06 10:54:00,53.8,40.2,30.00,SE,135,3.4,4.0,60,0.00,,---,0.00,VWS V14.01,2013-01-06 16:54:00,
2013-01-06 10:59:00,54.3,41.2,30.00,SSE,158,2.9,2.9,61,0.00,,---,0.00,VWS V14.01,2013-01-06 16:59:00,
2013-01-06 11:05:00,56.3,42.6,30.00,SSE,158,2.2,2.7,60,0.00,,---,0.00,VWS V14.01,2013-01-06 17:05:00,
2013-01-06 11:10:00,57.2,42.6,30.00,ESE,112,2.9,2.9,58,0.00,,---,0.00,VWS V14.01,2013-01-06 17:10:00,
2013-01-06 11:16:00,58.1,41.6,29.97,SSE,158,1.6,3.1,54,0.00,,---,0.00,VWS V14.01,2013-01-06 17:16:00,
2013-01-06 11:21:00,58.5,41.9,29.97,East,90,3.4,3.6,54,0.00,,---,0.00,VWS V14.01,2013-01-06 17:21:00,
2013-01-06 11:26:00,58.6,40.6,29.97,ESE,112,4.3,4.9,51,0.00,,---,0.00,VWS V14.01,2013-01-06 17:26:00,
2013-01-06 11:32:00,58.1,39.1,29.97,SE,135,2.7,5.4,49,0.00,,---,0.00,VWS V14.01,2013-01-06 17:32:00,
2013-01-06 11:38:00,57.0,38.1,29.97,SE,135,4.7,4.7,49,0.00,,---,0.00,VWS V14.01,2013-01-06 17:38:00,
2013-01-06 11:43:00,57.9,38.9,29.97,ESE,112,4.5,4.5,49,0.00,,---,0.00,VWS V14.01,2013-01-06 17:43:00,
2013-01-06 11:48:00,59.2,40.0,29.97,ESE,112,2.2,3.4,49,0.00,,---,0.00,VWS V14.01,2013-01-06 17:48:00,
2013-01-06 11:54:00,60.8,41.0,29.97,ESE,112,2.0,4.7,48,0.00,,---,0.00,VWS V14.01,2013-01-06 17:54:00,
2013-01-06 12:00:00,61.5,41.1,29.94,SE,135,1.1,2.5,47,0.00,,---,0.00,VWS V14.01,2013-01-06 18:00:00,
2013-01-06 12:05:00,61.0,40.1,29.94,South,180,2.7,3.6,46,0.00,,---,0.00,VWS V14.01,2013-01-06 18:05:00,
2013-01-06 12:10:00,62.4,41.4,29.94,East,90,2.7,3.1,46,0.00,,---,0.00,VWS V14.01,2013-01-06 18:10:00,
2013-01-06 12:15:00,62.2,40.1,29.94,East,90,3.6,4.7,44,0.00,,---,0.00,VWS V14.01,2013-01-06 18:15:00,
2013-01-06 12:21:00,63.0,40.1,29.94,South,180,2.9,4.0,43,0.00,,---,0.00,VWS V14.01,2013-01-06 18:21:00,
2013-01-06 12:26:00,63.7,39.6,29.94,SE,135,1.6,5.4,41,0.00,,---,0.00,VWS V14.01,2013-01-06 18:26:00,
2013-01-06 12:31:00,63.9,39.7,29.94,SE,135,3.4,3.4,41,0.00,,---,0.00,VWS V14.01,2013-01-06 18:31:00,
2013-01-06 12:36:00,64.6,41.0,29.94,ESE,112,3.1,3.8,42,0.00,,---,0.00,VWS V14.01,2013-01-06 18:36:00,
2013-01-06 12:41:00,65.1,40.2,29.91,ESE,112,4.0,4.9,40,0.00,,---,0.00,VWS V14.01,2013-01-06 18:41:00,
2013-01-06 12:46:00,64.0,39.2,29.91,ENE,68,4.3,5.6,40,0.00,,---,0.00,VWS V14.01,2013-01-06 18:46:00,
2013-01-06 12:51:00,64.9,40.1,29.91,East,90,1.6,2.9,40,0.00,,---,0.00,VWS V14.01,2013-01-06 18:51:00,
2013-01-06 12:56:00,65.1,40.2,29.94,ENE,68,2.7,6.0,40,0.00,,---,0.00,VWS V14.01,2013-01-06 18:56:00,
2013-01-06 13:01:00,65.3,40.4,29.94,ENE,68,2.9,5.6,40,0.00,,---,0.00,VWS V14.01,2013-01-06 19:01:00,
2013-01-06 13:06:00,65.5,40.5,29.94,East,90,2.7,4.9,40,0.00,,---,0.00,VWS V14.01,2013-01-06 19:06:00,
2013-01-06 13:11:00,66.2,41.2,29.91,SSE,158,3.6,3.6,40,0.00,,---,0.00,VWS V14.01,2013-01-06 19:11:00,
2013-01-06 13:17:00,65.7,39.4,29.91,ENE,68,3.8,6.3,38,0.00,,---,0.00,VWS V14.01,2013-01-06 19:17:00,
2013-01-06 13:22:00,66.2,39.9,29.91,ESE,112,2.7,3.4,38,0.00,,---,0.00,VWS V14.01,2013-01-06 19:22:00,
2013-01-06 13:27:00,65.7,37.3,29.88,East,90,6.3,6.3,35,0.00,,---,0.00,VWS V14.01,2013-01-06 19:27:00,
2013-01-06 13:33:00,64.9,35.9,29.88,East,90,3.6,6.5,34,0.00,,---,0.00,VWS V14.01,2013-01-06 19:33:00,
2013-01-06 13:39:00,64.2,35.3,29.88,SSE,158,0.9,4.0,34,0.00,,---,0.00,VWS V14.01,2013-01-06 19:39:00,
2013-01-06 13:45:00,64.6,35.6,29.88,ESE,112,5.6,5.8,34,0.00,,---,0.00,VWS V14.01,2013-01-06 19:45:00,
2013-01-06 13:51:00,64.8,35.8,29.88,ESE,112,3.1,4.0,34,0.00,,---,0.00,VWS V14.01,2013-01-06 19:51:00,
2013-01-06 13:56:00,64.8,35.0,29.85,ESE,112,4.3,5.6,33,0.00,,---,0.00,VWS V14.01,2013-01-06 19:56:00,
2013-01-06 14:02:00,64.6,34.8,29.85,ESE,112,2.7,3.1,33,0.00,,---,0.00,VWS V14.01,2013-01-06 20:02:00,
2013-01-06 14:08:00,65.8,36.7,29.85,ESE,112,5.4,5.4,34,0.00,,---,0.00,VWS V14.01,2013-01-06 20:08:00,
2013-01-06 14:12:00,65.7,35.8,29.85,SE,135,3.1,3.1,33,0.00,,---,0.00,VWS V14.01,2013-01-06 20:12:00,
2013-01-06 14:17:00,65.5,36.4,29.85,East,90,3.4,5.8,34,0.00,,---,0.00,VWS V14.01,2013-01-06 20:17:00,
2013-01-06 14:22:00,65.7,37.3,29.85,ENE,68,2.7,2.7,35,0.00,,---,0.00,VWS V14.01,2013-01-06 20:22:00,
2013-01-06 14:27:00,65.5,37.1,29.85,ENE,68,6.3,7.4,35,0.00,,---,0.00,VWS V14.01,2013-01-06 20:27:00,
2013-01-06 14:32:00,64.8,36.5,29.85,ENE,68,3.4,5.4,35,0.00,,---,0.00,VWS V14.01,2013-01-06 20:32:00,
2013-01-06 14:37:00,65.1,37.5,29.85,ESE,112,4.9,5.6,36,0.00,,---,0.00,VWS V14.01,2013-01-06 20:37:00,
2013-01-06 14:42:00,64.4,36.2,29.85,ENE,68,4.9,6.0,35,0.00,,---,0.00,VWS V14.01,2013-01-06 20:42:00,
2013-01-06 14:47:00,63.9,36.4,29.85,NE,45,3.1,4.7,36,0.00,,---,0.00,VWS V14.01,2013-01-06 20:47:00,
2013-01-06 14:52:00,64.0,36.6,29.85,ENE,68,0.0,2.2,36,0.00,,---,0.00,VWS V14.01,2013-01-06 20:52:00,
2013-01-06 14:58:00,63.5,36.1,29.85,East,90,4.9,6.0,36,0.00,,---,0.00,VWS V14.01,2013-01-06 20:58:00,
2013-01-06 15:03:00,63.0,35.6,29.85,East,90,3.4,3.8,36,0.00,,---,0.00,VWS V14.01,2013-01-06 21:03:00,
2013-01-06 15:04:00,63.0,35.6,29.85,East,90,3.4,4.3,36,0.00,,---,0.00,VWS V14.01,2013-01-06 21:04:00,
2013-01-06 15:09:00,62.6,35.3,29.85,ESE,112,3.6,6.0,36,0.00,,---,0.00,VWS V14.01,2013-01-06 21:09:00,
2013-01-06 15:14:00,62.2,35.7,29.85,SSE,158,0.0,1.6,37,0.00,,---,0.00,VWS V14.01,2013-01-06 21:14:00,
2013-01-06 15:19:00,61.7,35.2,29.85,ENE,68,3.1,4.9,37,0.00,,---,0.00,VWS V14.01,2013-01-06 21:19:00,
2013-01-06 15:25:00,60.8,35.1,29.85,ENE,68,3.6,3.6,38,0.00,,---,0.00,VWS V14.01,2013-01-06 21:25:00,
2013-01-06 15:30:00,60.3,35.2,29.88,NE,45,3.4,3.4,39,0.00,,---,0.00,VWS V14.01,2013-01-06 21:30:00,
2013-01-06 15:35:00,59.5,34.6,29.88,ESE,112,4.9,4.9,39,0.00,,---,0.00,VWS V14.01,2013-01-06 21:35:00,
2013-01-06 15:41:00,59.4,34.4,29.88,SE,135,3.1,4.7,39,0.00,,---,0.00,VWS V14.01,2013-01-06 21:41:00,
2013-01-06 15:47:00,58.8,34.6,29.88,ENE,68,3.1,3.4,40,0.00,,---,0.00,VWS V14.01,2013-01-06 21:47:00,
2013-01-06 15:52:00,58.5,34.2,29.88,NE,45,2.5,4.0,40,0.00,,---,0.00,VWS V14.01,2013-01-06 21:52:00,
2013-01-06 15:57:00,58.5,34.2,29.88,East,90,4.9,4.9,40,0.00,,---,0.00,VWS V14.01,2013-01-06 21:57:00,
2013-01-06 16:02:00,58.3,34.1,29.88,ESE,112,3.1,3.6,40,0.00,,---,0.00,VWS V14.01,2013-01-06 22:02:00,
2013-01-06 16:07:00,58.1,33.3,29.88,ENE,68,5.8,5.8,39,0.00,,---,0.00,VWS V14.01,2013-01-06 22:07:00,
2013-01-06 16:12:00,57.7,33.0,29.88,ENE,68,3.6,3.6,39,0.00,,---,0.00,VWS V14.01,2013-01-06 22:12:00,
2013-01-06 16:17:00,57.6,32.8,29.88,ENE,68,3.4,3.8,39,0.00,,---,0.00,VWS V14.01,2013-01-06 22:17:00,
2013-01-06 16:22:00,57.0,32.3,29.88,East,90,4.0,4.0,39,0.00,,---,0.00,VWS V14.01,2013-01-06 22:22:00,
2013-01-06 16:27:00,56.8,32.8,29.85,ENE,68,2.9,4.0,40,0.00,,---,0.00,VWS V14.01,2013-01-06 22:27:00,
2013-01-06 16:32:00,56.5,32.5,29.85,East,90,3.8,6.5,40,0.00,,---,0.00,VWS V14.01,2013-01-06 22:32:00,
2013-01-06 16:38:00,56.3,31.7,29.85,East,90,3.4,5.8,39,0.00,,---,0.00,VWS V14.01,2013-01-06 22:38:00,
2013-01-06 16:43:00,55.9,32.0,29.88,East,90,3.6,3.6,40,0.00,,---,0.00,VWS V14.01,2013-01-06 22:43:00,
2013-01-06 16:48:00,55.4,30.9,29.88,ENE,68,2.5,3.6,39,0.00,,---,0.00,VWS V14.01,2013-01-06 22:48:00,
2013-01-06 16:54:00,55.0,31.2,29.88,ENE,68,4.0,4.3,40,0.00,,---,0.00,VWS V14.01,2013-01-06 22:54:00,
2013-01-06 16:59:00,54.5,30.7,29.88,East,90,2.9,3.6,40,0.00,,---,0.00,VWS V14.01,2013-01-06 22:59:00,
2013-01-06 17:04:00,54.1,31.0,29.88,ENE,68,2.9,3.6,41,0.00,,---,0.00,VWS V14.01,2013-01-06 23:04:00,
2013-01-06 17:09:00,54.0,30.8,29.88,East,90,3.1,3.4,41,0.00,,---,0.00,VWS V14.01,2013-01-06 23:09:00,
2013-01-06 17:14:00,53.4,30.9,29.88,East,90,2.7,3.4,42,0.00,,---,0.00,VWS V14.01,2013-01-06 23:14:00,
2013-01-06 17:19:00,53.1,30.6,29.88,ENE,68,2.9,3.1,42,0.00,,---,0.00,VWS V14.01,2013-01-06 23:19:00,
2013-01-06 17:24:00,52.7,30.9,29.88,ENE,68,2.5,2.5,43,0.00,,---,0.00,VWS V14.01,2013-01-06 23:24:00,
2013-01-06 17:29:00,52.2,30.4,29.91,ENE,68,2.5,2.7,43,0.00,,---,0.00,VWS V14.01,2013-01-06 23:29:00,
2013-01-06 17:34:00,51.8,30.6,29.91,ENE,68,2.5,3.1,44,0.00,,---,0.00,VWS V14.01,2013-01-06 23:34:00,
2013-01-06 17:39:00,51.6,30.4,29.91,ENE,68,2.2,2.2,44,0.00,,---,0.00,VWS V14.01,2013-01-06 23:39:00,
2013-01-06 17:44:00,50.9,30.3,29.91,ENE,68,1.6,2.0,45,0.00,,---,0.00,VWS V14.01,2013-01-06 23:44:00,
2013-01-06 17:49:00,50.5,30.5,29.91,ENE,68,1.1,1.1,46,0.00,,---,0.00,VWS V14.01,2013-01-06 23:49:00,
2013-01-06 17:54:00,50.0,30.0,29.91,ENE,68,1.1,1.3,46,0.00,,---,0.00,VWS V14.01,2013-01-06 23:54:00,
2013-01-06 17:59:00,49.5,30.1,29.91,ENE,68,0.0,1.1,47,0.00,,---,0.00,VWS V14.01,2013-01-06 23:59:00,
2013-01-06 18:04:00,49.3,29.9,29.91,ENE,68,1.3,2.2,47,0.00,,---,0.00,VWS V14.01,2013-01-07 00:04:00,
2013-01-06 18:09:00,49.1,30.3,29.91,ENE,68,2.5,2.9,48,0.00,,---,0.00,VWS V14.01,2013-01-07 00:09:00,
2013-01-06 18:14:00,49.1,30.3,29.91,ENE,68,1.3,2.0,48,0.00,,---,0.00,VWS V14.01,2013-01-07 00:14:00,
2013-01-06 18:20:00,48.9,30.1,29.91,ENE,68,2.0,2.0,48,0.00,,---,0.00,VWS V14.01,2013-01-07 00:20:00,
2013-01-06 18:25:00,48.6,29.8,29.91,ENE,68,1.3,1.6,48,0.00,,---,0.00,VWS V14.01,2013-01-07 00:25:00,
2013-01-06 18:31:00,48.4,29.6,29.91,ENE,68,1.3,1.3,48,0.00,,---,0.00,VWS V14.01,2013-01-07 00:31:00,
2013-01-06 18:37:00,47.7,29.5,29.91,ENE,68,0.0,0.0,49,0.00,,---,0.00,VWS V14.01,2013-01-07 00:37:00,
2013-01-06 18:42:00,47.1,29.0,29.91,ENE,68,0.0,0.0,49,0.00,,---,0.00,VWS V14.01,2013-01-07 00:42:00,
2013-01-06 18:47:00,46.8,28.6,29.91,ENE,68,0.0,0.0,49,0.00,,---,0.00,VWS V14.01,2013-01-07 00:47:00,
2013-01-06 18:53:00,46.4,28.8,29.91,ENE,68,0.0,0.0,50,0.00,,---,0.00,VWS V14.01,2013-01-07 00:53:00,
2013-01-06 18:59:00,46.2,28.6,29.91,ENE,68,0.0,0.0,50,0.00,,---,0.00,VWS V14.01,2013-01-07 00:59:00,
2013-01-06 19:04:00,46.2,28.6,29.91,ENE,68,0.0,0.0,50,0.00,,---,0.00,VWS V14.01,2013-01-07 01:04:00,
2013-01-06 19:09:00,46.2,28.6,29.91,ENE,68,0.0,0.0,50,0.00,,---,0.00,VWS V14.01,2013-01-07 01:09:00,
2013-01-06 19:14:00,46.0,28.5,29.94,ENE,68,0.0,0.0,50,0.00,,---,0.00,VWS V14.01,2013-01-07 01:14:00,
2013-01-06 19:20:00,45.9,28.3,29.94,ENE,68,0.0,0.0,50,0.00,,---,0.00,VWS V14.01,2013-01-07 01:20:00,
2013-01-06 19:25:00,46.0,28.5,29.94,ENE,68,0.0,0.0,50,0.00,,---,0.00,VWS V14.01,2013-01-07 01:25:00,
2013-01-06 19:30:00,46.4,28.8,29.94,ENE,68,2.0,2.0,50,0.00,,---,0.00,VWS V14.01,2013-01-07 01:30:00,
2013-01-06 19:35:00,46.8,29.1,29.94,ENE,68,1.6,1.6,50,0.00,,---,0.00,VWS V14.01,2013-01-07 01:35:00,
2013-01-06 19:40:00,46.8,28.6,29.94,ENE,68,3.4,3.4,49,0.00,,---,0.00,VWS V14.01,2013-01-07 01:40:00,
2013-01-06 19:46:00,46.9,28.8,29.94,ENE,68,2.5,3.4,49,0.00,,---,0.00,VWS V14.01,2013-01-07 01:46:00,
2013-01-06 19:52:00,47.1,29.0,29.94,ENE,68,3.4,3.8,49,0.00,,---,0.00,VWS V14.01,2013-01-07 01:52:00,
2013-01-06 19:58:00,47.1,29.0,29.94,ENE,68,2.9,3.4,49,0.00,,---,0.00,VWS V14.01,2013-01-07 01:58:00,
2013-01-06 20:03:00,47.1,29.0,29.94,ENE,68,2.5,2.5,49,0.00,,---,0.00,VWS V14.01,2013-01-07 02:03:00,
2013-01-06 20:08:00,46.8,28.6,29.94,ENE,68,2.0,2.2,49,0.00,,---,0.00,VWS V14.01,2013-01-07 02:08:00,
2013-01-06 20:13:00,46.6,28.5,29.97,ENE,68,2.0,2.5,49,0.00,,---,0.00,VWS V14.01,2013-01-07 02:13:00,
2013-01-06 20:18:00,46.4,28.3,29.97,ENE,68,2.0,2.5,49,0.00,,---,0.00,VWS V14.01,2013-01-07 02:18:00,
2013-01-06 20:23:00,46.0,28.0,29.97,ENE,68,2.5,2.5,49,0.00,,---,0.00,VWS V14.01,2013-01-07 02:23:00,
2013-01-06 20:30:00,45.7,28.1,29.97,ENE,68,1.3,2.5,50,0.00,,---,0.00,VWS V14.01,2013-01-07 02:30:00,
2013-01-06 20:36:00,45.3,27.8,29.97,ENE,68,2.5,3.1,50,0.00,,---,0.00,VWS V14.01,2013-01-07 02:36:00,
2013-01-06 20:41:00,45.1,27.6,29.97,ENE,68,3.6,3.6,50,0.00,,---,0.00,VWS V14.01,2013-01-07 02:41:00,
2013-01-06 20:46:00,45.1,27.6,29.97,ENE,68,2.5,2.9,50,0.00,,---,0.00,VWS V14.01,2013-01-07 02:46:00,
2013-01-06 20:52:00,45.1,27.6,29.97,East,90,2.5,2.7,50,0.00,,---,0.00,VWS V14.01,2013-01-07 02:52:00,
2013-01-06 20:57:00,45.0,27.5,29.94,ENE,68,2.7,2.7,50,0.00,,---,0.00,VWS V14.01,2013-01-07 02:57:00,
2013-01-06 21:02:00,44.8,27.3,29.94,ESE,112,1.6,2.0,50,0.00,,---,0.00,VWS V14.01,2013-01-07 03:02:00,
2013-01-06 21:09:00,44.2,27.3,29.94,East,90,0.0,0.0,51,0.00,,---,0.00,VWS V14.01,2013-01-07 03:09:00,
2013-01-06 21:14:00,43.9,26.9,29.97,East,90,0.9,1.1,51,0.00,,---,0.00,VWS V14.01,2013-01-07 03:14:00,
2013-01-06 21:21:00,43.2,26.3,29.97,ENE,68,1.3,1.3,51,0.00,,---,0.00,VWS V14.01,2013-01-07 03:21:00,
2013-01-06 21:26:00,42.6,25.8,29.94,ENE,68,0.0,0.0,51,0.00,,---,0.00,VWS V14.01,2013-01-07 03:26:00,
2013-01-06 21:31:00,42.1,25.7,29.94,ENE,68,0.0,0.0,52,0.00,,---,0.00,VWS V14.01,2013-01-07 03:31:00,
2013-01-06 21:36:00,41.9,25.6,29.94,ENE,68,0.0,0.0,52,0.00,,---,0.00,VWS V14.01,2013-01-07 03:36:00,
2013-01-06 21:41:00,41.9,25.6,29.97,East,90,1.6,1.6,52,0.00,,---,0.00,VWS V14.01,2013-01-07 03:41:00,
2013-01-06 21:46:00,42.1,26.2,29.97,East,90,1.1,1.3,53,0.00,,---,0.00,VWS V14.01,2013-01-07 03:46:00,
2013-01-06 21:51:00,41.9,26.0,29.97,East,90,1.1,1.3,53,0.00,,---,0.00,VWS V14.01,2013-01-07 03:51:00,
2013-01-06 21:56:00,42.1,26.2,29.94,ENE,68,2.5,2.7,53,0.00,,---,0.00,VWS V14.01,2013-01-07 03:56:00,
2013-01-06 22:01:00,42.1,26.2,29.94,ENE,68,2.0,2.0,53,0.00,,---,0.00,VWS V14.01,2013-01-07 04:01:00,
2013-01-06 22:07:00,41.9,26.5,29.94,ENE,68,2.0,2.0,54,0.00,,---,0.00,VWS V14.01,2013-01-07 04:07:00,
2013-01-06 22:14:00,41.7,26.3,29.94,ENE,68,2.0,2.9,54,0.00,,---,0.00,VWS V14.01,2013-01-07 04:14:00,
2013-01-06 22:19:00,41.7,26.8,29.94,East,90,3.6,3.6,55,0.00,,---,0.00,VWS V14.01,2013-01-07 04:19:00,
2013-01-06 22:24:00,41.5,26.6,29.94,ENE,68,2.7,3.6,55,0.00,,---,0.00,VWS V14.01,2013-01-07 04:24:00,
2013-01-06 22:29:00,41.5,26.6,29.97,ENE,68,2.7,3.4,55,0.00,,---,0.00,VWS V14.01,2013-01-07 04:29:00,
2013-01-06 22:35:00,41.4,26.4,29.97,ENE,68,2.9,2.9,55,0.00,,---,0.00,VWS V14.01,2013-01-07 04:35:00,
2013-01-06 22:40:00,41.2,26.2,29.97,ENE,68,1.1,1.3,55,0.00,,---,0.00,VWS V14.01,2013-01-07 04:40:00,
2013-01-06 22:45:00,41.0,26.1,29.94,ENE,68,2.0,2.7,55,0.00,,---,0.00,VWS V14.01,2013-01-07 04:45:00,
2013-01-06 22:50:00,40.8,26.4,29.94,ENE,68,0.0,0.0,56,0.00,,---,0.00,VWS V14.01,2013-01-07 04:50:00,
2013-01-06 22:56:00,40.3,25.9,29.97,ENE,68,0.0,0.0,56,0.00,,---,0.00,VWS V14.01,2013-01-07 04:56:00,
2013-01-06 23:00:00,39.9,25.5,29.97,ENE,68,0.0,0.0,56,0.00,,---,0.00,VWS V14.01,2013-01-07 05:00:00,
2013-01-06 23:02:00,39.7,25.3,29.97,ENE,68,0.0,0.0,56,0.00,,---,0.00,VWS V14.01,2013-01-07 05:02:00,
2013-01-06 23:06:00,39.6,25.2,29.97,ENE,68,1.3,1.3,56,0.00,,---,0.00,VWS V14.01,2013-01-07 05:06:00,
2013-01-06 23:09:00,39.7,25.3,29.97,ENE,68,0.0,0.0,56,0.00,,---,0.00,VWS V14.01,2013-01-07 05:09:00,
2013-01-06 23:14:00,39.6,25.2,29.94,ENE,68,1.3,1.6,56,0.00,,---,0.00,VWS V14.01,2013-01-07 05:14:00,
2013-01-06 23:19:00,39.6,25.6,29.94,ENE,68,0.0,0.0,57,0.00,,---,0.00,VWS V14.01,2013-01-07 05:19:00,
2013-01-06 23:24:00,39.4,25.4,29.94,ENE,68,2.0,2.0,57,0.00,,---,0.00,VWS V14.01,2013-01-07 05:24:00,
2013-01-06 23:29:00,39.6,25.6,29.97,East,90,1.1,2.5,57,0.00,,---,0.00,VWS V14.01,2013-01-07 05:29:00,
2013-01-06 23:34:00,39.7,26.2,29.97,East,90,2.0,2.5,58,0.00,,---,0.00,VWS V14.01,2013-01-07 05:34:00,
2013-01-06 23:39:00,39.9,25.9,29.97,ENE,68,1.6,2.2,57,0.00,,---,0.00,VWS V14.01,2013-01-07 05:39:00,
2013-01-06 23:44:00,39.9,25.9,29.97,East,90,2.2,2.5,57,0.00,,---,0.00,VWS V14.01,2013-01-07 05:44:00,
2013-01-06 23:49:00,40.1,26.1,29.97,East,90,2.2,2.7,57,0.00,,---,0.00,VWS V14.01,2013-01-07 05:49:00,
2013-01-06 23:54:00,39.9,25.9,29.97,East,90,1.3,2.0,57,0.00,,---,0.00,VWS V14.01,2013-01-07 05:54:00,
2013-01-06 23:59:00,39.9,25.9,29.97,ESE,112,2.2,2.5,57,0.00,,---,0.00,VWS V14.01,2013-01-07 05:59:00,